This is the latest recevied weather packets stored in our database for station/object N9ALD. If no packets are shown the sender has not sent any weather packets the latest 10 day(s).
| Time | Temp. | Humidity | Pressure | Rain* | Wind** | Luminosity | Snow |
|---|---|---|---|---|---|---|---|
| 1776985359 | 26.67° C | 33% | 1007 hPa | 0 mm | - | 109 W/m² | - |
| 1776985055 | 26.67° C | 34% | 1007.2 hPa | 0 mm | - | 124 W/m² | - |
| 1776984751 | 26.67° C | 33% | 1007.1 hPa | 0 mm | - | 139 W/m² | - |
| 1776984447 | 26.67° C | 33% | 1007.4 hPa | 0 mm | - | 146 W/m² | - |
| 1776984143 | 26.67° C | 33% | 1007.5 hPa | 0 mm | - | 160 W/m² | - |
| 1776983838 | 26.67° C | 34% | 1007.4 hPa | 0 mm | - | 171 W/m² | - |
| 1776983535 | 26.67° C | 35% | 1007.4 hPa | 0 mm | - | 113 W/m² | - |
| 1776983231 | 26.67° C | 34% | 1007.5 hPa | 0 mm | - | 194 W/m² | - |
| 1776982930 | 26.67° C | 34% | 1007.6 hPa | 0 mm | - | 219 W/m² | - |
| 1776982627 | 27.22° C | 35% | 1007.6 hPa | 0 mm | - | 146 W/m² | - |
| 1776982323 | 27.22° C | 33% | 1007.5 hPa | 0 mm | - | 279 W/m² | - |
| 1776982022 | 27.22° C | 36% | 1007.8 hPa | 0 mm | - | 271 W/m² | - |
| 1776981717 | 27.22° C | 35% | 1007.9 hPa | 0 mm | - | 282 W/m² | - |
| 1776981412 | 27.22° C | 36% | 1007.8 hPa | 0 mm | - | 290 W/m² | - |
| 1776981109 | 27.22° C | 35% | 1007.8 hPa | 0 mm | - | 287 W/m² | - |
| 1776980805 | 27.78° C | 34% | 1007.7 hPa | 0 mm | - | 306 W/m² | - |
| 1776980502 | 27.78° C | 34% | 1007.9 hPa | 0 mm | - | 324 W/m² | - |
| 1776980199 | 27.78° C | 38% | 1008 hPa | 0 mm | - | 339 W/m² | - |
| 1776979895 | 27.78° C | 33% | 1008.1 hPa | 0 mm | - | 316 W/m² | - |
| 1776979590 | 27.78° C | 34% | 1008 hPa | 0 mm | - | 369 W/m² | - |
| 1776979287 | 27.78° C | 34% | 1007.9 hPa | 0 mm | - | 370 W/m² | - |
| 1776978984 | 27.78° C | 34% | 1007.9 hPa | 0 mm | - | 390 W/m² | - |
| 1776978680 | 27.78° C | 33% | 1007.9 hPa | 0 mm | - | 414 W/m² | - |
| 1776978378 | 27.78° C | 34% | 1008.2 hPa | 0 mm | - | 425 W/m² | - |
| 1776978076 | 27.78° C | 35% | 1007.9 hPa | 0 mm | - | 434 W/m² | - |
* Rain latest hour (hover to see other rain measurements)
** Current wind speed in m/s (hover to see current wind gust speed)